Cozumel Airport, Mexico

9:39 AM EST on February 10, 2016 (GMT -0500)
Cozumel International

Weather History for MMCZ - January, 2013

Change the Weather History Date:

Sunday, January 6, 2013

  Actual Average Record
Temperature  
Mean Temperature 72 °F -  
Max Temperature 78 °F 80 °F 87 °F (2007)
Min Temperature 66 °F 69 °F 51 °F (2012)
Cooling Degree Days 7    
Growing Degree Days 22 (Base 50)    
Moisture  
Dew Point 65 °F    
Average Humidity 79    
Maximum Humidity 88    
Minimum Humidity 61    
Precipitation  
Precipitation 0.00 in - - ()
Sea Level Pressure  
Sea Level Pressure 30.05 in    
Wind  
Wind Speed 3 mph ()    
Max Wind Speed 9 mph    
Max Gust Speed -    
Visibility 7.5 miles    
Events      
Averages and records for this station are not official NWS values.
T = Trace of Precipitation, MM = Missing Value Source: Averaged Metar Reports

Daily Weather History Graph

Daily Weather History Graph

Search for Another Location

Airport or City:

Trip Planner

Search our weather history database for the weather conditions in past years. The results will help you decide how hot, cold, wet, or windy it might be!

Date:

Astronomy

Jan. 06, 2013 Rise Set
Actual Time 6:25 AM CST 5:22 PM CST
Civil Twilight 6:01 AM CST 5:46 PM CST
Nautical Twilight 5:34 AM CST 6:13 PM CST
Astronomical Twilight 5:06 AM CST 6:40 PM CST
Moon 12:56 AM CST (1/6) 12:35 PM CST (1/6)
Length of Visible Light 11h 44m
Length of Day
10h 56m
Waning Crescent, 33% of the Moon is Illuminated
Jan 6
Waning Crescent
Jan 11
New
Jan 18
First Quarter
Jan 26
Full
Feb 3
Last Quarter

Hourly Weather History & Observations

Time (CST) Temp. Dew Point Humidity Pressure Visibility Wind Dir Wind Speed Gust Speed Precip Events Conditions
12:43 AM 68.0 °F 64.4 °F 88% 30.05 in 7.0 mi ESE 5.8 mph - N/A   Clear
1:45 AM 69.8 °F 64.4 °F 83% 30.04 in 7.0 mi Calm Calm - N/A   Clear
2:43 AM 68.0 °F 64.4 °F 88% 30.08 in 7.0 mi Calm Calm - N/A   Clear
3:52 AM 68.0 °F 64.4 °F 88% 30.02 in 7.0 mi East 3.5 mph - N/A   Clear
4:46 AM 68.0 °F 62.6 °F 83% 30.03 in 7.0 mi Calm Calm - N/A   Partly Cloudy
5:44 AM 66.2 °F 62.6 °F 88% 29.99 in 7.0 mi Calm Calm - N/A   Partly Cloudy
6:42 AM 66.2 °F 62.6 °F 88% 30.05 in 8.0 mi East 4.6 mph - N/A   Scattered Clouds
7:41 AM 68.0 °F 64.4 °F 88% 30.08 in 8.0 mi NNE 3.5 mph - N/A   Scattered Clouds
8:40 AM 75.2 °F 66.2 °F 73% 30.13 in 8.0 mi ENE 4.6 mph - N/A   Scattered Clouds
9:40 AM 78.8 °F 66.2 °F 65% 30.10 in 8.0 mi ENE 8.1 mph - N/A   Mostly Cloudy
10:40 AM 78.8 °F 66.2 °F 65% 30.09 in 8.0 mi ENE 9.2 mph - N/A   Scattered Clouds
11:45 AM 78.8 °F 64.4 °F 61% 30.01 in 8.0 mi East 8.1 mph - N/A   Scattered Clouds
12:46 PM 78.8 °F 64.4 °F 61% 30.04 in 8.0 mi East 8.1 mph - N/A   Mostly Cloudy
1:47 PM 78.8 °F 66.2 °F 65% 30.03 in 8.0 mi ESE 5.8 mph - N/A   Mostly Cloudy
2:43 PM 78.8 °F 64.4 °F 61% 30.05 in 8.0 mi Calm Calm - N/A   Mostly Cloudy
3:41 PM 77.0 °F 66.2 °F 69% 30.02 in 8.0 mi ESE 4.6 mph - N/A   Mostly Cloudy
4:46 PM 75.2 °F 66.2 °F 73% 30.01 in 8.0 mi East 3.5 mph - N/A   Mostly Cloudy
5:50 PM 71.6 °F 66.2 °F 83% 29.99 in 7.0 mi Calm Calm - N/A   Mostly Cloudy
6:44 PM 69.8 °F 66.2 °F 88% 30.04 in 7.0 mi Calm Calm - N/A   Scattered Clouds
7:46 PM 69.8 °F 66.2 °F 88% 30.05 in 7.0 mi ENE 3.5 mph - N/A   Scattered Clouds
8:48 PM 69.8 °F 66.2 °F 88% 30.09 in 7.0 mi Calm Calm - N/A   Partly Cloudy
9:46 PM 69.8 °F 66.2 °F 88% 30.07 in 7.0 mi Calm Calm - N/A   Scattered Clouds
10:50 PM 69.8 °F 66.2 °F 88% 30.07 in 7.0 mi East 4.6 mph - N/A   Partly Cloudy
11:44 PM 68.0 °F 64.4 °F 88% 30.03 in 7.0 mi Calm Calm - N/A   Partly Cloudy